Regional Weather Roundup
Issued by NWS

Home | Current Version | Previous Version | Graphics & Text | Print | Product List | Glossary On
Versions: 1 2 3 4 5 6 7 8 9 10 11 12 13 14 15 16 17 18 19 20 21 22 23 24 25 26 27 28 29 30 31 32 33 34 35 36 37 38 39 40 41 42 43 44 45 46 47 48 49 50
000
ASUS43 KLSX 241010
RWRMO

WEATHER SUMMARY FOR MISSOURI
NATIONAL WEATHER SERVICE SPRINGFIELD MO
500 AM CDT MON JUL 24 2017

NOTE: "FAIR" INDICATES FEW OR NO CLOUDS BELOW 12,000 FEET WITH NO
       SIGNIFICANT WEATHER AND/OR OBSTRUCTIONS TO VISIBILITY.
       CURRENT SKY AND/OR WEATHER CONDITIONS ARE NOT AVAILABLE FOR
       CHILLICOTHE AND FARMINGTON.

MOZ001>031-035>038-043-044-053-054-241100-
...NORTHERN AND WESTERN MISSOURI...

CITY           SKY/WX    TMP DP  RH WIND       PRES   REMARKS
KANSAS CTY INT PTCLDY    71  65  81 NE7       29.98R
KANSAS C DTWN  PTCLDY    73  66  78 N7        29.96R
LEE`S SUMMIT   PTCLDY    73  65  75 NE8       29.97R
ST JOSEPH      PTCLDY    66  65  96 N5        29.98R
CHILLICOTHE      N/A     67  65  93 CALM      29.99R
KIRKSVILLE     CLEAR     64  61  90 N5        29.98R

$$
MOZ066>068-077>081-088>096-101>105-241100-
...SOUTHWEST MISSOURI...

CITY           SKY/WX    TMP DP  RH WIND       PRES   REMARKS
SPRINGFIELD    CLEAR     72  69  90 W3        29.95S
JOPLIN         CLEAR     72  70  93 SW6       29.95S
BRANSON          N/A     72  70  94 CALM      29.97R

$$
MOZ032>034-039>042-045>050-055>058-069>072-241100-
...CENTRAL MISSOURI...

CITY           SKY/WX    TMP DP  RH WIND       PRES   REMARKS
COLUMBIA       MOCLDY    71  67  87 E6        29.95R
JEFFERSON CITY CLEAR     74  70  87 CALM      29.93R
ROLLA          CLEAR     69  68  96 CALM      29.94R
SEDALIA        CLEAR     72  70  93 NE7       29.96R
WHITEMAN AFB   CLEAR     70  70 100 NE8       29.94R
OSAGE BEACH    MOCLDY    71  69  93 CALM      29.94S

$$
MOZ051-052-059>065-241100-
...EAST CENTRAL MISSOURI...

CITY           SKY/WX    TMP DP  RH WIND       PRES   REMARKS
ST LOUIS INTL  PTCLDY    74  67  78 N6        29.92R
SPIRIT OF STL  CLEAR     71  70  96 VRB3      29.91R
ST CHARLES     CLEAR     72  66  81 NW3       29.91R

$$
MOZ072>076-082>087-097>100-106>115-241100-
...SOUTH CENTRAL AND SOUTHEAST MISSOURI...

CITY           SKY/WX    TMP DP  RH WIND       PRES   REMARKS
CAPE GIRARDEAU PTCLDY    70  69  97 S3        29.88R
FARMINGTON     CLOUDY    69  67  93 CALM      29.94R
POPLAR BLUFF   PTCLDY    73  73 100 SE3       29.89R
WEST PLAINS    CLOUDY    69  66  90 CALM      29.95S

$$




USA.gov is the U.S. government's official web portal to all federal, state and local government web resources and services.